Location: Unspecified
(0.0000°N, 0.0000°E)
Time: 23:29:30
(UTC+00:00)

Courier 1B - Visible Passes

Search period start: 15 May 2026 00:00
Search period end: 25 May 2026 00:00
Orbit: 962 x 1209 km, 28.3° (Epoch: 14 May)

Date Brightness Start Highest point End Pass type
(mag) Time Alt. Az. Time Alt. Az. Time Alt. Az.
15 May 10.0 02:45:28 13° ESE 02:45:28 13° ESE 02:46:19 10° ESE visible
15 May 7.7 04:32:22 31° SW 04:35:49 72° SSE 04:42:51 10° ENE visible
15 May 9.7 19:56:34 10° SW 19:58:55 12° SSW 20:00:12 11° SSW visible
16 May 8.0 03:42:02 51° SSE 03:42:02 51° SSE 03:48:32 10° ENE visible
16 May 8.3 05:29:39 10° W 05:36:03 45° NNW 05:42:48 10° NE visible
16 May 9.6 19:00:16 10° WSW 19:04:39 17° SSW 19:08:55 10° SSE visible
17 May 9.5 02:51:40 21° E 02:51:40 21° E 02:54:04 10° E visible
17 May 7.7 04:38:34 29° W 04:42:05 63° NNW 04:48:58 10° NE visible
18 May 7.4 03:48:11 87° NNW 03:48:11 87° NNW 03:55:01 10° ENE visible
19 May 9.1 02:57:46 29° ENE 02:57:46 29° ENE 03:00:56 10° ENE visible
19 May 8.5 04:44:40 20° WNW 04:48:26 34° NNW 04:54:34 10° NE visible
20 May 7.9 03:54:12 47° NW 03:54:28 47° NNW 04:00:55 10° NE visible
21 May 8.9 03:03:43 32° NE 03:03:43 32° NE 03:07:09 10° NE visible
21 May 9.3 04:50:37 10° WNW 04:54:58 19° NNW 04:59:35 10° NNE visible
22 May 10.3 02:13:12 10° ENE 02:13:12 10° ENE 02:13:17 10° ENE visible
22 May 8.8 04:00:05 25° NW 04:00:53 26° NNW 04:06:17 10° NNE visible
23 May 9.1 03:09:32 26° NNE 03:09:32 26° NNE 03:12:50 10° NE visible
23 May 9.8 05:00:35 10° NNW 05:01:45 10° NNW 05:02:57 10° N visible
24 May 10.2 02:18:56 12° NE 02:18:56 12° NE 02:19:17 10° NE visible
24 May 9.5 04:05:49 13° NW 04:07:31 14° NNW 04:10:53 10° N visible
